Terminal Aerodrome Forecast
Issued by NWS Topeka, KS

Home | Current Version | Previous Version | Text Only | Print | Product List | Glossary Off
Versions: 1 2 3 4 5 6 7 8 9 10 11 12

000
FTUS43 KTOP 281133
TAFTOP
TAF
KTOP 281133Z 2812/2912 23005KT P6SM FEW250
     FM281400 24008KT P6SM BKN090
     FM281800 30010G18KT P6SM VCSH SCT060=

USA.gov is the U.S. government's official web portal to all federal, state and local government web resources and services.